Regional Weather Roundup
Issued by NWS

Home | Current Version | Previous Version | Text Only | Print | Product List | Glossary Off
Versions: 1 2 3 4 5 6 7 8 9 10 11 12 13 14 15 16 17 18 19 20 21 22 23 24 25 26 27 28 29 30 31 32 33 34 35 36 37 38 39 40 41 42 43 44 45 46 47 48 49 50

632
ASUS43 KLSX 281810
RWRMO

WEATHER SUMMARY FOR MISSOURI
NATIONAL WEATHER SERVICE SPRINGFIELD MO
100 PM CDT WED JUN 28 2017

NOTE: "FAIR" INDICATES FEW OR NO CLOUDS BELOW 12,000 FEET WITH NO
       SIGNIFICANT WEATHER AND/OR OBSTRUCTIONS TO VISIBILITY.
       CURRENT SKY AND/OR WEATHER CONDITIONS ARE NOT AVAILABLE FOR
       CHILLICOTHE AND FARMINGTON.

MOZ001>031-035>038-043-044-053-054-281900-
...NORTHERN AND WESTERN MISSOURI...

CITY           SKY/WX    TMP DP  RH WIND       PRES   REMARKS
KANSAS CTY INT PTSUNNY   84  72  67 S18G28    29.80S
6HR MIN TEMP:  73; 6HR MAX TEMP:  85;

KANSAS C DTWN  MOSUNNY   88  71  57 S16G35    29.79F HX  94
6HR MIN TEMP:  74; 6HR MAX TEMP:  88;

LEE`S SUMMIT   MOSUNNY   86  71  60 SW23G29   29.83S HX  91
6HR MIN TEMP:  71; 6HR MAX TEMP:  86;

ST JOSEPH      MOSUNNY   85  73  67 SW24G30   29.75F HX  91
6HR MIN TEMP:  69; 6HR MAX TEMP:  85; 6HR PCP:  0.07;

CHILLICOTHE      N/A     84  71  65 S14G28    29.81S
6HR MIN TEMP:  69; 6HR MAX TEMP:  84; 6HR PCP:  0.13;

KIRKSVILLE     CLOUDY    82  68  62 SW17G30   29.85S
6HR MIN TEMP:  69; 6HR MAX TEMP:  82;


$$
MOZ066>068-077>081-088>096-101>105-281900-
...SOUTHWEST MISSOURI...

CITY           SKY/WX    TMP DP  RH WIND       PRES   REMARKS
SPRINGFIELD    SUNNY     83  69  62 S22G29    29.95F
6HR MIN TEMP:  67; 6HR MAX TEMP:  83;

JOPLIN         SUNNY     86  72  62 S21G30    29.90F HX  92
6HR MIN TEMP:  71; 6HR MAX TEMP:  86;

BRANSON        PTSUNNY   82  66  57 S9G16     30.01F

$$
MOZ032>034-039>042-045>050-055>058-069>072-281900-
...CENTRAL MISSOURI...

CITY           SKY/WX    TMP DP  RH WIND       PRES   REMARKS
COLUMBIA       SUNNY     83  70  64 S16G31    29.90F
6HR MIN TEMP:  69; 6HR MAX TEMP:  83;

JEFFERSON CITY MOSUNNY   83  66  56 S15G22    29.90F
6HR MIN TEMP:  70; 6HR MAX TEMP:  83;

ROLLA          MOSUNNY   82  65  56 S17G25    29.95F
6HR MIN TEMP:  67; 6HR MAX TEMP:  83;

SEDALIA        MOSUNNY   83  72  69 S18G32    29.88F
6HR MIN TEMP:  70; 6HR MAX TEMP:  85;

WHITEMAN AFB   MOSUNNY   84  73  70 SW23G36   29.83F HX  90
WARRENSBURG    CLOUDY    82  68  61 S18G28    29.84S
OSAGE BEACH    MOSUNNY   84  68  58 S12       29.93F

$$
MOZ051-052-059>065-281900-
...EAST CENTRAL MISSOURI...

CITY           SKY/WX    TMP DP  RH WIND       PRES   REMARKS
ST LOUIS INTL  CLOUDY    86  64  47 S14G22    29.97F
6HR MIN TEMP:  69; 6HR MAX TEMP:  86;

SPIRIT OF STL  PTSUNNY   84  65  52 SW16G25   29.95F
6HR MIN TEMP:  67; 6HR MAX TEMP:  85;

ST CHARLES     PTSUNNY   84  65  52 S17G25    29.95F
6HR MIN TEMP:  68; 6HR MAX TEMP:  84;


$$
MOZ072>076-082>087-097>100-106>115-281900-
...SOUTH CENTRAL AND SOUTHEAST MISSOURI...

CITY           SKY/WX    TMP DP  RH WIND       PRES   REMARKS
CAPE GIRARDEAU PTSUNNY   83  64  52 SW15      30.03F
6HR MIN TEMP:  67; 6HR MAX TEMP:  83;

FARMINGTON     CLOUDY    82  66  58 S16       30.03F
6HR MIN TEMP:  63; 6HR MAX TEMP:  83;

POPLAR BLUFF   CLOUDY    81  67  62 S12       30.03F
6HR MIN TEMP:  65; 6HR MAX TEMP:  83;

WEST PLAINS    CLOUDY    80  63  55 S8        30.04F
6HR MIN TEMP:  67; 6HR MAX TEMP:  82;


$$




USA.gov is the U.S. government's official web portal to all federal, state and local government web resources and services.